TimeCDT,TemperatureF,Dew PointF,Humidity,Sea Level PressureIn,VisibilityMPH,Wind Direction,Wind SpeedMPH,Gust SpeedMPH,PrecipitationIn,Events,Conditions,WindDirDegrees,DateUTC
12:15 AM,68.0,64.4,88,29.64,8.0,SE,6.9,-,0.07,Thunderstorm,Thunderstorm,140,2013-06-13 05:15:00
12:35 AM,66.2,64.4,94,29.64,9.0,SE,6.9,-,0.34,Thunderstorm,Thunderstorm,130,2013-06-13 05:35:00
12:55 AM,68.0,66.2,94,29.64,5.0,SW,3.5,-,0.61,Thunderstorm,Thunderstorm,230,2013-06-13 05:55:00
1:15 AM,68.0,66.2,94,29.67,10.0,North,11.5,-,0.05,Thunderstorm,Mostly Cloudy,350,2013-06-13 06:15:00
1:35 AM,68.0,66.2,94,29.66,6.0,SW,5.8,-,0.31,Thunderstorm,Thunderstorm,220,2013-06-13 06:35:00
1:55 AM,68.0,66.2,94,29.63,10.0,North,9.2,-,0.32,,Scattered Clouds,350,2013-06-13 06:55:00
2:15 AM,68.0,66.2,94,29.63,10.0,WSW,6.9,-,N/A,,Partly Cloudy,250,2013-06-13 07:15:00
2:35 AM,68.0,66.2,94,29.62,10.0,WSW,5.8,-,N/A,,Scattered Clouds,240,2013-06-13 07:35:00
2:55 AM,68.0,64.4,88,29.61,10.0,SSW,5.8,-,N/A,,Partly Cloudy,200,2013-06-13 07:55:00
3:15 AM,68.0,66.2,94,29.62,10.0,SW,6.9,-,N/A,,Scattered Clouds,220,2013-06-13 08:15:00
3:35 AM,68.0,66.2,94,29.63,10.0,West,4.6,-,N/A,,Scattered Clouds,280,2013-06-13 08:35:00
3:55 AM,68.0,66.2,94,29.64,9.0,West,3.5,-,N/A,,Partly Cloudy,260,2013-06-13 08:55:00
4:15 AM,66.2,64.4,94,29.64,8.0,NW,5.8,-,N/A,,Clear,320,2013-06-13 09:15:00
4:35 AM,66.2,64.4,94,29.65,7.0,NNW,9.2,-,N/A,,Partly Cloudy,340,2013-06-13 09:35:00
4:55 AM,66.2,64.4,94,29.65,6.0,North,11.5,-,N/A,,Mostly Cloudy,350,2013-06-13 09:55:00
5:15 AM,66.2,64.4,94,29.65,4.0,North,6.9,-,N/A,,Overcast,350,2013-06-13 10:15:00
5:35 AM,66.2,64.4,94,29.67,5.0,NNW,9.2,-,N/A,,Overcast,340,2013-06-13 10:35:00
5:55 AM,66.2,64.4,94,29.69,9.0,NW,10.4,-,0.04,,Overcast,310,2013-06-13 10:55:00
6:15 AM,66.2,64.4,94,29.70,10.0,NNW,11.5,-,0.04,,Overcast,330,2013-06-13 11:15:00
6:35 AM,66.2,64.4,94,29.71,10.0,NW,11.5,-,0.07,,Overcast,320,2013-06-13 11:35:00
6:55 AM,66.2,62.6,88,29.72,10.0,NNW,10.4,-,0.07,,Overcast,340,2013-06-13 11:55:00
7:15 AM,64.4,62.6,94,29.72,10.0,North,11.5,-,N/A,,Overcast,350,2013-06-13 12:15:00
7:35 AM,64.4,62.6,94,29.73,10.0,NNW,10.4,-,N/A,,Overcast,340,2013-06-13 12:35:00
7:55 AM,64.4,62.6,94,29.74,10.0,NNW,10.4,-,N/A,,Overcast,340,2013-06-13 12:55:00
8:15 AM,66.2,62.6,88,29.75,10.0,NNW,12.7,-,N/A,,Overcast,340,2013-06-13 13:15:00
8:35 AM,66.2,62.6,88,29.76,10.0,NNW,13.8,-,N/A,,Overcast,340,2013-06-13 13:35:00
8:55 AM,66.2,62.6,88,29.77,7.0,North,15.0,18.4,N/A,,Overcast,350,2013-06-13 13:55:00
9:15 AM,66.2,62.6,88,29.79,10.0,North,11.5,18.4,N/A,,Overcast,350,2013-06-13 14:15:00
9:35 AM,66.2,62.6,88,29.80,10.0,North,15.0,-,N/A,,Overcast,350,2013-06-13 14:35:00
9:55 AM,68.0,62.6,83,29.80,10.0,North,16.1,21.9,N/A,,Mostly Cloudy,10,2013-06-13 14:55:00
10:15 AM,69.8,59.0,68,29.82,10.0,NNE,18.4,-,N/A,,Mostly Cloudy,20,2013-06-13 15:15:00
10:35 AM,69.8,57.2,64,29.83,10.0,NNE,15.0,-,N/A,,Overcast,20,2013-06-13 15:35:00
10:55 AM,69.8,59.0,68,29.84,10.0,NNE,16.1,-,N/A,,Overcast,20,2013-06-13 15:55:00
11:15 AM,71.6,59.0,64,29.84,10.0,North,13.8,-,N/A,,Scattered Clouds,360,2013-06-13 16:15:00
11:35 AM,73.4,59.0,61,29.85,10.0,North,18.4,24.2,N/A,,Clear,10,2013-06-13 16:35:00
11:55 AM,75.2,59.0,57,29.85,10.0,NNE,16.1,-,N/A,,Clear,20,2013-06-13 16:55:00
12:15 PM,75.2,59.0,57,29.85,10.0,North,11.5,-,N/A,,Clear,360,2013-06-13 17:15:00
12:35 PM,75.2,59.0,57,29.85,10.0,North,15.0,-,N/A,,Clear,350,2013-06-13 17:35:00
12:55 PM,75.2,59.0,57,29.86,10.0,NNW,13.8,-,N/A,,Scattered Clouds,340,2013-06-13 17:55:00
1:15 PM,77.0,59.0,54,29.86,10.0,North,15.0,19.6,N/A,,Scattered Clouds,350,2013-06-13 18:15:00
1:35 PM,75.2,57.2,53,29.87,10.0,NNW,17.3,24.2,N/A,,Scattered Clouds,330,2013-06-13 18:35:00
1:55 PM,77.0,57.2,50,29.87,10.0,NW,19.6,25.3,N/A,,Scattered Clouds,320,2013-06-13 18:55:00
2:15 PM,77.0,57.2,50,29.88,10.0,NNW,17.3,25.3,N/A,,Scattered Clouds,330,2013-06-13 19:15:00
2:35 PM,75.2,55.4,50,29.88,10.0,NNW,19.6,27.6,N/A,,Clear,330,2013-06-13 19:35:00
2:55 PM,77.0,55.4,47,29.89,10.0,NNW,18.4,24.2,N/A,,Clear,340,2013-06-13 19:55:00
3:15 PM,75.2,53.6,47,29.89,10.0,NW,19.6,29.9,N/A,,Partly Cloudy,320,2013-06-13 20:15:00
3:35 PM,75.2,55.4,50,29.89,10.0,NNW,21.9,28.8,N/A,,Partly Cloudy,340,2013-06-13 20:35:00
3:55 PM,75.2,53.6,47,29.90,10.0,NNW,20.7,27.6,N/A,,Clear,330,2013-06-13 20:55:00
4:15 PM,75.2,55.4,50,29.90,10.0,NW,21.9,28.8,N/A,,Clear,320,2013-06-13 21:15:00
4:35 PM,75.2,55.4,50,29.90,10.0,NNW,20.7,27.6,N/A,,Clear,330,2013-06-13 21:35:00
4:55 PM,73.4,55.4,53,29.91,10.0,NNW,20.7,29.9,N/A,,Clear,330,2013-06-13 21:55:00
5:15 PM,73.4,55.4,53,29.91,10.0,NNW,18.4,26.5,N/A,,Clear,340,2013-06-13 22:15:00
5:35 PM,71.6,55.4,57,29.91,10.0,NNW,21.9,27.6,N/A,,Clear,330,2013-06-13 22:35:00
5:55 PM,71.6,53.6,53,29.91,10.0,NNW,16.1,24.2,N/A,,Clear,330,2013-06-13 22:55:00
6:15 PM,71.6,55.4,57,29.92,10.0,NNW,18.4,25.3,N/A,,Clear,340,2013-06-13 23:15:00
6:35 PM,71.6,53.6,53,29.92,10.0,NNW,19.6,25.3,N/A,,Clear,340,2013-06-13 23:35:00
6:55 PM,69.8,53.6,56,29.93,10.0,NNW,10.4,25.3,N/A,,Clear,330,2013-06-13 23:55:00
7:15 PM,69.8,53.6,56,29.93,10.0,NNW,16.1,-,N/A,,Clear,330,2013-06-14 00:15:00
7:35 PM,68.0,53.6,60,29.94,10.0,NNW,17.3,23.0,N/A,,Clear,330,2013-06-14 00:35:00
7:55 PM,66.2,51.8,60,29.94,10.0,NNW,13.8,20.7,N/A,,Clear,330,2013-06-14 00:55:00
8:15 PM,64.4,51.8,64,29.95,10.0,NW,10.4,-,N/A,,Clear,320,2013-06-14 01:15:00
8:35 PM,64.4,51.8,64,29.96,10.0,NNW,10.4,-,N/A,,Clear,330,2013-06-14 01:35:00
8:55 PM,64.4,51.8,64,29.96,10.0,NNW,12.7,-,N/A,,Clear,330,2013-06-14 01:55:00
9:15 PM,64.4,51.8,64,29.96,10.0,NNW,12.7,-,N/A,,Clear,330,2013-06-14 02:15:00
9:35 PM,62.6,51.8,68,29.97,10.0,NW,10.4,-,N/A,,Clear,310,2013-06-14 02:35:00
9:55 PM,62.6,53.6,72,29.97,10.0,NW,10.4,-,N/A,,Clear,310,2013-06-14 02:55:00
10:15 PM,62.6,51.8,68,29.98,10.0,NW,13.8,-,N/A,,Clear,320,2013-06-14 03:15:00
10:35 PM,62.6,51.8,68,29.97,10.0,NW,10.4,-,N/A,,Clear,320,2013-06-14 03:35:00
10:55 PM,60.8,51.8,72,29.97,10.0,NW,10.4,-,N/A,,Clear,310,2013-06-14 03:55:00
11:15 PM,60.8,51.8,72,29.97,10.0,NNW,11.5,-,N/A,,Clear,330,2013-06-14 04:15:00
11:35 PM,60.8,51.8,72,29.98,10.0,North,9.2,-,N/A,,Clear,350,2013-06-14 04:35:00
11:55 PM,60.8,51.8,72,29.97,10.0,NNW,10.4,-,N/A,,Clear,340,2013-06-14 04:55:00